User: anonymous   Login
Location: Unspecified
(0.0000°N, 0.0000°E)
Time: 04:55:59
(UTC+00:00)
Language:

Meteor 2-17 - Orbit

View from above orbital plane
View from above orbital plane
View from above satellite
View from above satellite

Ground track
Ground track

The orbit data is extracted from the following two-line orbital elements,

1 18820U 88005A   18016.74920814  .00000010  00000-0 -42502-5 0  9991
2 18820  82.5416 251.7489 0017655  84.5446 339.6068 13.85404534514886
Epoch (UTC): 16 January 2018 17:58:51
Eccentricity: 0.0017655
inclination: 82.5416°
perigee height: 932 km
apogee height: 958 km
right ascension of ascending node: 251.7489°
argument of perigee: 84.5446°
revolutions per day: 13.85404534
mean anomaly at epoch: 339.6068°
orbit number at epoch: 51488

The dashed part of the orbit path shows where the satellite is in the earth's shadow,  

DLR